Tracking 35275 objects as of 8-Sep-2026
HD Live streaming from Space Station
objects crossing your sky now

STARLINK-1402

Track STARLINK-1402 now!
10-day predictions
STARLINK-1402 is classified as:


NORAD ID: 45685
Int'l Code: 2020-035AE
Launch date: June 4, 2020
Source: United States (US)
Launch site: AIR FORCE EASTERN TEST RANGE (AFETR)
Your satellite tracking list
Your tracking list is empty




NASA's NSSDC Master Catalog

Two Line Element Set (TLE):
1 45685U 20035AE  26249.64647998  .00046379  00000-0  33688-3 0  9994
2 45685  53.0364 222.5382 0005242  56.1238 304.0278 15.72913071347580
Source of the keplerian elements: AFSPC